| time (UTC) | temp F | wind direction | speed MPH | gust MPH | rain 1hr in | rain 24hr in | rain mn in | humidity % | barometer mb |
| 20260906124914 | 83 | 174 | 1.0 | 1.0 | 0.00 | 0.01 | 0.01 | 89 | 1016.3 |
| 20260906124410 | 82 | 150 | 1.0 | 2.0 | 0.00 | 0.01 | 0.01 | 91 | 1016.3 |
| 20260906123910 | 81 | 161 | 0.0 | 0.0 | 0.00 | 0.01 | 0.01 | 93 | 1016.3 |
| 20260906123404 | 81 | 164 | 0.0 | 0.0 | 0.00 | 0.01 | 0.01 | 93 | 1016.1 |
| 20260906122904 | 80 | 168 | 0.0 | 0.0 | 0.00 | 0.01 | 0.01 | 95 | 1015.9 |
| 20260906122359 | 80 | 160 | 0.0 | 0.0 | 0.00 | 0.01 | 0.01 | 96 | 1016.1 |
| 20260906121855 | 78 | 163 | 0.0 | 0.0 | 0.07 | 0.01 | 0.01 | 99 | 1015.9 |
| 20260906121351 | 78 | 163 | 0.0 | 0.0 | 0.07 | 0.01 | 0.01 | 99 | 1015.8 |
| 20260906120847 | 78 | 165 | 0.0 | 0.0 | 0.00 | 0.00 | 0.00 | 99 | 1015.8 |
| 20260906120343 | 77 | 165 | 0.0 | 0.0 | 0.00 | 0.00 | 0.00 | 99 | 1015.9 |
| 20260906115839 | 77 | 163 | 0.0 | 0.0 | 0.00 | 0.00 | 0.00 | 99 | 1015.6 |
| 20260906115334 | 76 | 165 | 0.0 | 0.0 | 0.00 | 0.00 | 0.00 | 99 | 1015.9 |
| 20260906114833 | 77 | 166 | 0.0 | 0.0 | 0.00 | 0.00 | 0.00 | 99 | 1015.7 |
| 20260906114329 | 75 | 167 | 0.0 | 0.0 | 0.00 | 0.00 | 0.00 | 99 | 1015.6 |
| 20260906113824 | 75 | 167 | 0.0 | 0.0 | 0.00 | 0.00 | 0.00 | 99 | 1015.6 |
| 20260906113323 | 75 | 167 | 0.0 | 0.0 | 0.00 | 0.00 | 0.00 | 99 | 1015.5 |
| 20260906112818 | 75 | 163 | 0.0 | 0.0 | 0.00 | 0.00 | 0.00 | 99 | 1015.6 |
| 20260906112314 | 75 | 154 | 0.0 | 0.0 | 0.00 | 0.00 | 0.00 | 99 | 1015.7 |
| 20260906111808 | 75 | 166 | 0.0 | 0.0 | 0.00 | 0.00 | 0.00 | 99 | 1015.4 |
| 20260906111307 | 75 | 166 | 0.0 | 0.0 | 0.00 | 0.00 | 0.00 | 99 | 1015.5 |
| 20260906110803 | 75 | 163 | 0.0 | 0.0 | 0.00 | 0.00 | 0.00 | 99 | 1015.4 |
| 20260906110259 | 75 | 167 | 0.0 | 0.0 | 0.00 | 0.00 | 0.00 | 99 | 1015.3 |
| 20260906105758 | 75 | 163 | 0.0 | 0.0 | 0.00 | 0.00 | 0.00 | 99 | 1015.5 |
| 20260906105253 | 75 | 166 | 0.0 | 0.0 | 0.00 | 0.00 | 0.00 | 99 | 1015.3 |
| 20260906104749 | 75 | 168 | 0.0 | 0.0 | 0.00 | 0.00 | 0.00 | 99 | 1015.4 |
| 20260906104247 | 75 | 171 | 0.0 | 0.0 | 0.00 | 0.00 | 0.00 | 99 | 1015.2 |
| 20260906103746 | 75 | 171 | 0.0 | 0.0 | 0.00 | 0.00 | 0.00 | 99 | 1014.9 |
| 20260906103240 | 75 | 172 | 0.0 | 0.0 | 0.00 | 0.00 | 0.00 | 99 | 1015.3 |
| 20260906102736 | 75 | 168 | 0.0 | 0.0 | 0.00 | 0.00 | 0.00 | 99 | 1015.1 |
| 20260906102235 | 75 | 168 | 0.0 | 0.0 | 0.00 | 0.00 | 0.00 | 99 | 1015.0 |
| 20260906101730 | 75 | 168 | 0.0 | 0.0 | 0.00 | 0.00 | 0.00 | 99 | 1014.6 |
| 20260906101225 | 76 | 169 | 0.0 | 0.0 | 0.00 | 0.00 | 0.00 | 99 | 1015.1 |
| 20260906100720 | 75 | 171 | 0.0 | 0.0 | 0.00 | 0.00 | 0.00 | 99 | 1015.0 |
| 20260906100220 | 75 | 171 | 0.0 | 0.0 | 0.00 | 0.00 | 0.00 | 99 | 1015.1 |
| 20260906095715 | 76 | 171 | 0.0 | 0.0 | 0.00 | 0.00 | 0.00 | 99 | 1015.0 |
| 20260906095210 | 76 | 172 | 0.0 | 0.0 | 0.00 | 0.00 | 0.00 | 99 | 1015.1 |
| 20260906094709 | 75 | 170 | 0.0 | 0.0 | 0.00 | 0.00 | 0.00 | 99 | 1015.1 |
| 20260906094205 | 75 | 169 | 0.0 | 0.0 | 0.00 | 0.00 | 0.00 | 99 | 1014.9 |
| 20260906093701 | 75 | 168 | 0.0 | 0.0 | 0.00 | 0.00 | 0.00 | 99 | 1014.9 |
| 20260906093156 | 75 | 168 | 0.0 | 0.0 | 0.00 | 0.00 | 0.00 | 99 | 1014.8 |
| 20260906092651 | 75 | 168 | 0.0 | 0.0 | 0.00 | 0.00 | 0.00 | 99 | 1014.9 |
| 20260906092150 | 75 | 168 | 0.0 | 0.0 | 0.00 | 0.00 | 0.00 | 99 | 1014.6 |
| 20260906091646 | 76 | 168 | 0.0 | 0.0 | 0.00 | 0.00 | 0.00 | 99 | 1014.6 |
| 20260906091143 | 75 | 168 | 0.0 | 0.0 | 0.00 | 0.00 | 0.00 | 99 | 1014.8 |
| 20260906090633 | 75 | 168 | 0.0 | 0.0 | 0.00 | 0.00 | 0.00 | 99 | 1014.7 |
| 20260906090132 | 76 | 168 | 0.0 | 0.0 | 0.00 | 0.00 | 0.00 | 99 | 1014.5 |
| 20260906085632 | 76 | 168 | 0.0 | 0.0 | 0.00 | 0.00 | 0.00 | 99 | 1014.6 |
| 20260906085131 | 76 | 163 | 0.0 | 0.0 | 0.00 | 0.00 | 0.00 | 99 | 1014.5 |
| 20260906084626 | 76 | 168 | 0.0 | 0.0 | 0.00 | 0.00 | 0.00 | 99 | 1014.6 |
| 20260906084125 | 76 | 169 | 0.0 | 0.0 | 0.00 | 0.00 | 0.00 | 99 | 1014.1 |
| 20260906083620 | 76 | 168 | 0.0 | 0.0 | 0.00 | 0.00 | 0.00 | 99 | 1014.4 |
| 20260906083115 | 76 | 164 | 0.0 | 0.0 | 0.00 | 0.00 | 0.00 | 99 | 1014.6 |
| 20260906082610 | 76 | 167 | 0.0 | 0.0 | 0.00 | 0.00 | 0.00 | 99 | 1014.5 |
| 20260906082106 | 76 | 167 | 0.0 | 0.0 | 0.00 | 0.00 | 0.00 | 99 | 1014.3 |
| 20260906081602 | 76 | 161 | 0.0 | 0.0 | 0.00 | 0.00 | 0.00 | 99 | 1014.4 |
| 20260906081056 | 76 | 167 | 0.0 | 0.0 | 0.00 | 0.00 | 0.00 | 99 | 1014.5 |
| 20260906080548 | 76 | 168 | 0.0 | 0.0 | 0.00 | 0.00 | 0.00 | 99 | 1014.5 |
| 20260906080044 | 76 | 168 | 0.0 | 0.0 | 0.00 | 0.00 | 0.00 | 99 | 1014.5 |
| 20260906075543 | 76 | 168 | 0.0 | 0.0 | 0.00 | 0.00 | 0.00 | 99 | 1014.7 |
| 20260906075038 | 76 | 164 | 0.0 | 0.0 | 0.00 | 0.00 | 0.00 | 99 | 1014.5 |
| 20260906074533 | 76 | 137 | 1.0 | 1.0 | 0.00 | 0.00 | 0.00 | 99 | 1014.6 |
| 20260906074031 | 76 | 156 | 1.0 | 1.0 | 0.00 | 0.00 | 0.00 | 99 | 1014.5 |
| 20260906073526 | 76 | 165 | 0.0 | 0.0 | 0.00 | 0.00 | 0.00 | 99 | 1014.2 |
| 20260906073022 | 76 | 169 | 0.0 | 0.0 | 0.00 | 0.00 | 0.00 | 99 | 1014.5 |
| 20260906072517 | 77 | 167 | 0.0 | 0.0 | 0.00 | 0.00 | 0.00 | 99 | 1014.4 |
| 20260906072014 | 77 | 164 | 0.0 | 0.0 | 0.00 | 0.00 | 0.00 | 99 | 1014.3 |
| 20260906071509 | 77 | 169 | 0.0 | 0.0 | 0.00 | 0.00 | 0.00 | 99 | 1014.4 |
| 20260906071005 | 77 | 169 | 0.0 | 0.0 | 0.00 | 0.00 | 0.00 | 99 | 1014.6 |
| 20260906070501 | 77 | 177 | 1.0 | 1.0 | 0.00 | 0.00 | 0.00 | 99 | 1014.4 |
| 20260906065956 | 77 | 171 | 0.0 | 0.0 | 0.00 | 0.00 | 0.00 | 99 | 1014.6 |
| 20260906065455 | 77 | 172 | 0.0 | 0.0 | 0.00 | 0.00 | 0.00 | 99 | 1014.5 |
| 20260906064951 | 77 | 181 | 0.0 | 1.0 | 0.00 | 0.00 | 0.00 | 99 | 1014.6 |
| 20260906064447 | 77 | 170 | 0.0 | 0.0 | 0.00 | 0.00 | 0.00 | 99 | 1014.3 |
| 20260906063942 | 77 | 173 | 0.0 | 0.0 | 0.00 | 0.00 | 0.00 | 99 | 1014.5 |
| 20260906063438 | 77 | 173 | 0.0 | 0.0 | 0.00 | 0.00 | 0.00 | 99 | 1014.4 |
| 20260906062937 | 76 | 171 | 0.0 | 0.0 | 0.00 | 0.00 | 0.00 | 99 | 1014.6 |
| 20260906062433 | 76 | 168 | 0.0 | 0.0 | 0.00 | 0.00 | 0.00 | 99 | 1014.4 |
| 20260906061927 | 76 | 170 | 0.0 | 0.0 | 0.00 | 0.00 | 0.00 | 99 | 1014.6 |
| 20260906061424 | 76 | 169 | 0.0 | 0.0 | 0.00 | 0.00 | 0.00 | 99 | 1014.6 |
| 20260906060918 | 76 | 173 | 0.0 | 0.0 | 0.00 | 0.00 | 0.00 | 99 | 1014.6 |
| 20260906060415 | 76 | 167 | 0.0 | 0.0 | 0.00 | 0.00 | 0.00 | 99 | 1014.8 |
| 20260906055911 | 76 | 163 | 0.0 | 0.0 | 0.00 | 0.00 | 0.00 | 99 | 1015.0 |
| 20260906055407 | 76 | 169 | 0.0 | 0.0 | 0.00 | 0.00 | 0.00 | 99 | 1014.8 |
| 20260906054902 | 76 | 169 | 0.0 | 0.0 | 0.00 | 0.00 | 0.00 | 99 | 1014.6 |
| 20260906054356 | 76 | 172 | 1.0 | 1.0 | 0.00 | 0.00 | 0.00 | 99 | 1015.0 |
| 20260906053853 | 76 | 168 | 0.0 | 0.0 | 0.00 | 0.00 | 0.00 | 99 | 1015.3 |
| 20260906053348 | 76 | 168 | 0.0 | 0.0 | 0.00 | 0.00 | 0.00 | 99 | 1014.8 |
| 20260906052844 | 76 | 166 | 0.0 | 0.0 | 0.00 | 0.00 | 0.00 | 99 | 1014.9 |
| 20260906052340 | 76 | 169 | 0.0 | 0.0 | 0.00 | 0.00 | 0.00 | 99 | 1015.0 |
| 20260906051837 | 76 | 170 | 0.0 | 1.0 | 0.00 | 0.00 | 0.00 | 99 | 1015.2 |
| 20260906051336 | 76 | 168 | 0.0 | 0.0 | 0.00 | 0.00 | 0.00 | 99 | 1015.0 |
| 20260906050832 | 76 | 168 | 0.0 | 0.0 | 0.00 | 0.00 | 0.00 | 99 | 1015.1 |
| 20260906050327 | 76 | 168 | 0.0 | 0.0 | 0.00 | 0.00 | 0.00 | 99 | 1015.3 |
| 20260906045826 | 76 | 163 | 1.0 | 1.0 | 0.00 | 0.00 | 0.00 | 99 | 1015.0 |
| 20260906045320 | 76 | 168 | 0.0 | 0.0 | 0.00 | 0.00 | 0.00 | 99 | 1015.0 |
| 20260906044817 | 76 | 170 | 0.0 | 0.0 | 0.00 | 0.00 | 0.00 | 99 | 1015.2 |
| 20260906044317 | 76 | 168 | 0.0 | 0.0 | 0.00 | 0.00 | 0.00 | 99 | 1015.5 |
| 20260906043813 | 77 | 167 | 0.0 | 0.0 | 0.00 | 0.00 | 0.00 | 99 | 1015.3 |
| 20260906043308 | 76 | 169 | 0.0 | 0.0 | 0.00 | 0.00 | 0.00 | 99 | 1015.5 |
| 20260906042803 | 77 | 168 | 0.0 | 0.0 | 0.00 | 0.00 | 0.00 | 99 | 1015.4 |
| 20260906042306 | 77 | 168 | 0.0 | 0.0 | 0.00 | 0.00 | 0.00 | 99 | 1015.6 |
| 20260906041757 | 77 | 169 | 0.0 | 0.0 | 0.00 | 0.00 | 0.00 | 99 | 1015.6 |
| 20260906041253 | 77 | 167 | 0.0 | 1.0 | 0.00 | 0.00 | 0.00 | 99 | 1015.4 |
| 20260906040748 | 77 | 168 | 0.0 | 0.0 | 0.00 | 0.00 | 0.00 | 99 | 1015.4 |
| 20260906040243 | 77 | 169 | 0.0 | 0.0 | 0.00 | 0.00 | 0.00 | 99 | 1015.6 |
| 20260906035738 | 77 | 171 | 0.0 | 0.0 | 0.00 | 0.03 | 0.03 | 99 | 1015.7 |
| 20260906035234 | 77 | 171 | 0.0 | 0.0 | 0.00 | 0.03 | 0.03 | 99 | 1015.5 |
| 20260906034734 | 77 | 169 | 0.0 | 0.0 | 0.00 | 0.03 | 0.03 | 99 | 1015.9 |
| 20260906034229 | 77 | 170 | 0.0 | 0.0 | 0.00 | 0.03 | 0.03 | 99 | 1015.6 |
| 20260906033725 | 77 | 169 | 0.0 | 0.0 | 0.00 | 0.03 | 0.03 | 99 | 1015.8 |
| 20260906033224 | 77 | 169 | 0.0 | 0.0 | 0.00 | 0.03 | 0.03 | 99 | 1016.0 |
| 20260906032721 | 77 | 169 | 0.0 | 0.0 | 0.00 | 0.03 | 0.03 | 99 | 1016.2 |
| 20260906032221 | 77 | 169 | 0.0 | 0.0 | 0.00 | 0.03 | 0.03 | 99 | 1016.2 |
| 20260906031716 | 77 | 166 | 0.0 | 0.0 | 0.00 | 0.03 | 0.03 | 99 | 1016.3 |
| 20260906031212 | 77 | 165 | 0.0 | 0.0 | 0.00 | 0.03 | 0.03 | 99 | 1016.3 |
| 20260906030712 | 77 | 162 | 0.0 | 1.0 | 0.00 | 0.03 | 0.03 | 99 | 1016.5 |
| 20260906030206 | 77 | 164 | 0.0 | 0.0 | 0.00 | 0.03 | 0.03 | 99 | 1016.3 |
| 20260906025706 | 78 | 168 | 0.0 | 0.0 | 0.00 | 0.03 | 0.03 | 99 | 1016.2 |
| 20260906025200 | 78 | 166 | 0.0 | 0.0 | 0.00 | 0.03 | 0.03 | 99 | 1016.1 |
| 20260906024654 | 78 | 168 | 0.0 | 0.0 | 0.00 | 0.03 | 0.03 | 99 | 1016.0 |
| 20260906024153 | 77 | 167 | 0.0 | 0.0 | 0.00 | 0.03 | 0.03 | 99 | 1015.8 |
| 20260906023649 | 77 | 172 | 0.0 | 0.0 | 0.00 | 0.03 | 0.03 | 99 | 1015.7 |
| 20260906023149 | 77 | 172 | 0.0 | 0.0 | 0.00 | 0.03 | 0.03 | 99 | 1015.6 |
| 20260906022644 | 77 | 169 | 0.0 | 0.0 | 0.00 | 0.03 | 0.03 | 99 | 1015.5 |
| 20260906022140 | 78 | 169 | 0.0 | 0.0 | 0.00 | 0.03 | 0.03 | 99 | 1015.6 |
| 20260906021636 | 78 | 169 | 0.0 | 0.0 | 0.00 | 0.03 | 0.03 | 99 | 1015.3 |
| 20260906021134 | 78 | 168 | 0.0 | 0.0 | 0.00 | 0.03 | 0.03 | 99 | 1015.3 |
| 20260906020629 | 78 | 168 | 0.0 | 0.0 | 0.00 | 0.03 | 0.03 | 98 | 1015.2 |
| 20260906020124 | 78 | 169 | 0.0 | 0.0 | 0.00 | 0.03 | 0.03 | 98 | 1015.4 |
| 20260906015618 | 78 | 172 | 0.0 | 0.0 | 0.00 | 0.03 | 0.03 | 98 | 1015.3 |
| 20260906015117 | 78 | 158 | 0.0 | 0.0 | 0.00 | 0.03 | 0.03 | 98 | 1015.2 |
| 20260906014612 | 78 | 168 | 0.0 | 0.0 | 0.00 | 0.03 | 0.03 | 98 | 1015.4 |
| 20260906014108 | 78 | 161 | 0.0 | 0.0 | 0.00 | 0.03 | 0.03 | 98 | 1015.1 |
| 20260906013603 | 78 | 167 | 0.0 | 0.0 | 0.00 | 0.03 | 0.03 | 98 | 1015.1 |
| 20260906013058 | 78 | 169 | 1.0 | 1.0 | 0.00 | 0.03 | 0.03 | 98 | 1014.9 |
| 20260906012553 | 78 | 167 | 0.0 | 0.0 | 0.00 | 0.03 | 0.03 | 98 | 1014.6 |
| 20260906012053 | 79 | 171 | 0.0 | 0.0 | 0.00 | 0.03 | 0.03 | 98 | 1014.7 |
| 20260906011549 | 79 | 168 | 0.0 | 0.0 | 0.00 | 0.03 | 0.03 | 97 | 1014.4 |
| 20260906011048 | 79 | 176 | 0.0 | 0.0 | 0.00 | 0.03 | 0.03 | 97 | 1014.4 |
| 20260906010539 | 79 | 173 | 0.0 | 0.0 | 0.00 | 0.03 | 0.03 | 97 | 1014.5 |
| 20260906010035 | 79 | 173 | 0.0 | 0.0 | 0.00 | 0.03 | 0.03 | 96 | 1014.6 |
| 20260906005534 | 79 | 169 | 0.0 | 0.0 | 0.00 | 0.03 | 0.03 | 96 | 1014.6 |
| 20260906005033 | 79 | 177 | 0.0 | 0.0 | 0.00 | 0.03 | 0.03 | 95 | 1014.7 |
| 20260906004532 | 79 | 173 | 0.0 | 0.0 | 0.00 | 0.03 | 0.03 | 95 | 1014.4 |
| 20260906004027 | 80 | 175 | 0.0 | 0.0 | 0.00 | 0.03 | 0.03 | 94 | 1014.3 |
| 20260906003522 | 80 | 169 | 0.0 | 0.0 | 0.00 | 0.03 | 0.03 | 94 | 1014.3 |
| 20260906003018 | 80 | 168 | 0.0 | 0.0 | 0.00 | 0.03 | 0.03 | 94 | 1014.5 |
| 20260906002513 | 80 | 168 | 0.0 | 0.0 | 0.00 | 0.03 | 0.03 | 94 | 1014.2 |
| 20260906002008 | 80 | 169 | 0.0 | 0.0 | 0.00 | 0.03 | 0.03 | 94 | 1014.4 |
| 20260906001504 | 80 | 167 | 1.0 | 1.0 | 0.00 | 0.03 | 0.03 | 93 | 1014.5 |
| 20260906000958 | 81 | 173 | 0.0 | 0.0 | 0.00 | 0.03 | 0.03 | 92 | 1014.2 |
| 20260906000455 | 81 | 174 | 0.0 | 0.0 | 0.00 | 0.03 | 0.03 | 92 | 1014.2 |
| 20260905235954 | 81 | 169 | 0.0 | 0.0 | 0.00 | 0.03 | 0.03 | 90 | 1014.0 |
| 20260905235448 | 82 | 175 | 0.0 | 0.0 | 0.00 | 0.03 | 0.03 | 89 | 1014.2 |
| 20260905234943 | 81 | 179 | 0.0 | 0.0 | 0.00 | 0.03 | 0.03 | 89 | 1014.1 |
| 20260905234438 | 82 | 178 | 1.0 | 1.0 | 0.00 | 0.03 | 0.03 | 88 | 1014.2 |
| 20260905233932 | 82 | 174 | 0.0 | 0.0 | 0.00 | 0.03 | 0.03 | 87 | 1014.3 |
| 20260905233428 | 83 | 173 | 0.0 | 0.0 | 0.00 | 0.03 | 0.03 | 86 | 1014.4 |
| 20260905232927 | 83 | 176 | 0.0 | 1.0 | 0.00 | 0.03 | 0.03 | 85 | 1014.4 |
| 20260905232423 | 84 | 191 | 0.0 | 0.0 | 0.00 | 0.03 | 0.03 | 83 | 1014.3 |
| 20260905231918 | 84 | 184 | 0.0 | 1.0 | 0.00 | 0.03 | 0.03 | 81 | 1014.3 |
| 20260905231414 | 84 | 192 | 2.0 | 2.0 | 0.00 | 0.03 | 0.03 | 82 | 1014.6 |
| 20260905230911 | 85 | 179 | 1.0 | 1.0 | 0.00 | 0.03 | 0.03 | 82 | 1014.5 |
| 20260905230409 | 87 | 182 | 1.0 | 2.0 | 0.00 | 0.03 | 0.03 | 79 | 1014.6 |
| 20260905225907 | 87 | 184 | 1.0 | 1.0 | 0.00 | 0.03 | 0.03 | 78 | 1014.8 |
| 20260905225403 | 87 | 187 | 1.0 | 1.0 | 0.00 | 0.03 | 0.03 | 77 | 1014.5 |
| 20260905224857 | 87 | 182 | 1.0 | 1.0 | 0.00 | 0.03 | 0.03 | 77 | 1014.7 |
| 20260905224353 | 87 | 193 | 2.0 | 2.0 | 0.00 | 0.03 | 0.03 | 79 | 1014.4 |
| 20260905223847 | 86 | 231 | 5.0 | 6.0 | 0.00 | 0.03 | 0.03 | 77 | 1014.7 |
| 20260905223345 | 87 | 357 | 3.0 | 3.0 | 0.00 | 0.03 | 0.03 | 79 | 1015.0 |
| 20260905222840 | 87 | 214 | 3.0 | 3.0 | 0.00 | 0.03 | 0.03 | 83 | 1015.0 |
| 20260905222338 | 87 | 217 | 4.0 | 5.0 | 0.00 | 0.03 | 0.03 | 84 | 1014.8 |
| 20260905221835 | 86 | 221 | 0.0 | 1.0 | 0.00 | 0.03 | 0.03 | 87 | 1014.8 |
| 20260905221332 | 86 | 204 | 1.0 | 2.0 | 0.00 | 0.03 | 0.03 | 87 | 1015.0 |
| 20260905220827 | 86 | 235 | 2.0 | 2.0 | 0.00 | 0.03 | 0.03 | 87 | 1014.9 |
| 20260905220323 | 85 | 182 | 1.0 | 1.0 | 0.00 | 0.03 | 0.03 | 88 | 1014.9 |
| 20260905215822 | 84 | 202 | 1.0 | 1.0 | 0.00 | 0.03 | 0.03 | 89 | 1014.9 |
| 20260905215318 | 84 | 188 | 1.0 | 2.0 | 0.00 | 0.03 | 0.03 | 90 | 1015.0 |
| 20260905214814 | 83 | 182 | 1.0 | 1.0 | 0.00 | 0.03 | 0.03 | 93 | 1014.7 |
| 20260905214309 | 82 | 192 | 0.0 | 1.0 | 0.00 | 0.03 | 0.03 | 93 | 1014.5 |
| 20260905213804 | 82 | 182 | 0.0 | 0.0 | 0.00 | 0.03 | 0.03 | 96 | 1014.8 |
| 20260905213300 | 82 | 170 | 0.0 | 0.0 | 0.00 | 0.03 | 0.03 | 96 | 1014.9 |
| 20260905212755 | 82 | 173 | 1.0 | 1.0 | 0.00 | 0.03 | 0.03 | 96 | 1014.7 |
| 20260905212255 | 81 | 172 | 0.0 | 0.0 | 0.00 | 0.03 | 0.03 | 96 | 1014.8 |
| 20260905211755 | 81 | 174 | 0.0 | 1.0 | 0.00 | 0.03 | 0.03 | 96 | 1014.7 |
| 20260905211250 | 81 | 175 | 0.0 | 0.0 | 0.00 | 0.03 | 0.03 | 96 | 1014.9 |
| 20260905210747 | 82 | 169 | 0.0 | 0.0 | 0.00 | 0.03 | 0.03 | 95 | 1015.0 |
| 20260905210246 | 81 | 176 | 0.0 | 1.0 | 0.00 | 0.03 | 0.03 | 95 | 1015.0 |
| 20260905205745 | 81 | 179 | 0.0 | 1.0 | 0.00 | 0.03 | 0.03 | 94 | 1015.0 |
| 20260905205240 | 81 | 194 | 0.0 | 0.0 | 0.00 | 0.03 | 0.03 | 95 | 1015.2 |
| 20260905204740 | 81 | 180 | 0.0 | 0.0 | 0.00 | 0.03 | 0.03 | 95 | 1015.2 |
| 20260905204236 | 82 | 178 | 0.0 | 0.0 | 0.00 | 0.03 | 0.03 | 94 | 1015.0 |
| 20260905203735 | 81 | 175 | 0.0 | 1.0 | 0.00 | 0.03 | 0.03 | 93 | 1014.9 |
| 20260905203231 | 81 | 176 | 1.0 | 1.0 | 0.00 | 0.03 | 0.03 | 94 | 1014.9 |
| 20260905202726 | 81 | 207 | 2.0 | 2.0 | 0.00 | 0.03 | 0.03 | 94 | 1015.1 |
| 20260905202221 | 81 | 168 | 2.0 | 2.0 | 0.00 | 0.03 | 0.03 | 94 | 1015.3 |
| 20260905201717 | 80 | 169 | 0.0 | 0.0 | 0.00 | 0.03 | 0.03 | 94 | 1015.1 |
| 20260905201217 | 81 | 174 | 2.0 | 2.0 | 0.00 | 0.03 | 0.03 | 95 | 1015.2 |
| 20260905200712 | 81 | 170 | 1.0 | 1.0 | 0.05 | 0.03 | 0.03 | 95 | 1015.4 |
| 20260905200208 | 81 | 177 | 1.0 | 1.0 | 0.12 | 0.03 | 0.03 | 94 | 1015.2 |
| 20260905195706 | 82 | 176 | 0.0 | 1.0 | 0.07 | 0.02 | 0.02 | 93 | 1015.4 |
| 20260905195201 | 83 | 195 | 3.0 | 3.0 | 0.00 | 0.01 | 0.01 | 90 | 1015.7 |
| 20260905194656 | 84 | 176 | 3.0 | 5.0 | 0.00 | 0.01 | 0.01 | 89 | 1015.6 |
| 20260905194155 | 84 | 180 | 1.0 | 2.0 | 0.00 | 0.01 | 0.01 | 87 | 1015.7 |
| 20260905193650 | 84 | 167 | 3.0 | 3.0 | 0.00 | 0.01 | 0.01 | 86 | 1015.8 |
| 20260905193145 | 85 | 207 | 1.0 | 3.0 | 0.00 | 0.01 | 0.01 | 84 | 1015.7 |
| 20260905192640 | 85 | 177 | 2.0 | 2.0 | 0.00 | 0.01 | 0.01 | 83 | 1015.7 |
| 20260905192137 | 86 | 197 | 1.0 | 2.0 | 0.00 | 0.01 | 0.01 | 81 | 1015.7 |
| 20260905191636 | 88 | 234 | 2.0 | 2.0 | 0.00 | 0.01 | 0.01 | 73 | 1015.9 |
| 20260905191134 | 89 | 186 | 1.0 | 1.0 | 0.00 | 0.01 | 0.01 | 72 | 1015.6 |
| 20260905190633 | 89 | 190 | 1.0 | 2.0 | 0.00 | 0.01 | 0.01 | 72 | 1015.8 |
| 20260905190132 | 91 | 201 | 3.0 | 3.0 | 0.00 | 0.01 | 0.01 | 69 | 1015.5 |
| 20260905185632 | 89 | 187 | 0.0 | 1.0 | 0.00 | 0.01 | 0.01 | 73 | 1015.6 |
| 20260905185132 | 90 | 286 | 3.0 | 3.0 | 0.00 | 0.01 | 0.01 | 70 | 1015.6 |
| 20260905184626 | 90 | 228 | 2.0 | 2.0 | 0.00 | 0.01 | 0.01 | 70 | 1015.9 |
| 20260905184125 | 91 | 347 | 4.0 | 5.0 | 0.00 | 0.01 | 0.01 | 68 | 1015.9 |
| 20260905183624 | 91 | 238 | 1.0 | 1.0 | 0.00 | 0.01 | 0.01 | 70 | 1015.5 |
| 20260905183119 | 90 | 187 | 0.0 | 0.0 | 0.00 | 0.01 | 0.01 | 70 | 1016.0 |
| 20260905182614 | 91 | 225 | 3.0 | 3.0 | 0.00 | 0.01 | 0.01 | 70 | 1016.0 |
| 20260905182113 | 91 | 84 | 3.0 | 3.0 | 0.00 | 0.01 | 0.01 | 71 | 1016.2 |
| 20260905181608 | 91 | 351 | 3.0 | 3.0 | 0.00 | 0.01 | 0.01 | 72 | 1016.1 |
| 20260905181107 | 88 | 179 | 1.0 | 1.0 | 0.00 | 0.01 | 0.01 | 74 | 1016.2 |
| 20260905180602 | 89 | 210 | 0.0 | 0.0 | 0.00 | 0.01 | 0.01 | 75 | 1016.1 |
| 20260905180058 | 89 | 173 | 0.0 | 0.0 | 0.00 | 0.01 | 0.01 | 74 | 1016.5 |
| 20260905175556 | 90 | 319 | 3.0 | 3.0 | 0.00 | 0.01 | 0.01 | 71 | 1016.5 |
| 20260905175052 | 90 | 166 | 1.0 | 1.0 | 0.00 | 0.01 | 0.01 | 72 | 1016.3 |
| 20260905174548 | 90 | 213 | 3.0 | 3.0 | 0.00 | 0.01 | 0.01 | 72 | 1016.4 |
| 20260905174043 | 90 | 182 | 0.0 | 1.0 | 0.00 | 0.01 | 0.01 | 72 | 1016.5 |
| 20260905173540 | 90 | 126 | 3.0 | 3.0 | 0.00 | 0.01 | 0.01 | 73 | 1016.4 |
| 20260905173035 | 89 | 182 | 1.0 | 1.0 | 0.00 | 0.01 | 0.01 | 74 | 1016.8 |
| 20260905172533 | 88 | 135 | 2.0 | 2.0 | 0.00 | 0.01 | 0.01 | 75 | 1016.8 |
| 20260905172029 | 87 | 155 | 0.0 | 1.0 | 0.00 | 0.01 | 0.01 | 78 | 1017.0 |
| 20260905171525 | 89 | 73 | 4.0 | 6.0 | 0.00 | 0.01 | 0.01 | 77 | 1017.0 |
| 20260905171021 | 88 | 119 | 2.0 | 2.0 | 0.00 | 0.01 | 0.01 | 78 | 1017.1 |
| 20260905170518 | 88 | 34 | 4.0 | 5.0 | 0.00 | 0.01 | 0.01 | 79 | 1017.4 |
| 20260905170013 | 87 | 39 | 3.0 | 3.0 | 0.00 | 0.01 | 0.01 | 81 | 1017.4 |
| 20260905165513 | 85 | 144 | 3.0 | 3.0 | 0.00 | 0.01 | 0.01 | 84 | 1017.1 |
| 20260905165007 | 86 | 67 | 1.0 | 3.0 | 0.00 | 0.01 | 0.01 | 82 | 1017.2 |
| 20260905164502 | 86 | 230 | 2.0 | 2.0 | 0.00 | 0.01 | 0.01 | 82 | 1017.5 |
| 20260905163956 | 86 | 166 | 1.0 | 2.0 | 0.00 | 0.01 | 0.01 | 82 | 1017.5 |
| 20260905163453 | 87 | 156 | 2.0 | 2.0 | 0.00 | 0.01 | 0.01 | 80 | 1017.4 |
| 20260905162949 | 89 | 174 | 1.0 | 1.0 | 0.00 | 0.01 | 0.01 | 79 | 1017.5 |
| 20260905162444 | 87 | 223 | 1.0 | 1.0 | 0.00 | 0.01 | 0.01 | 78 | 1017.5 |
| 20260905161939 | 87 | 172 | 0.0 | 0.0 | 0.00 | 0.01 | 0.01 | 82 | 1017.6 |
| 20260905161438 | 88 | 71 | 2.0 | 2.0 | 0.00 | 0.01 | 0.01 | 79 | 1017.7 |
| 20260905160936 | 88 | 166 | 1.0 | 2.0 | 0.00 | 0.01 | 0.01 | 77 | 1017.4 |
| 20260905160430 | 88 | 178 | 1.0 | 1.0 | 0.00 | 0.01 | 0.01 | 76 | 1017.7 |
| 20260905155929 | 88 | 252 | 2.0 | 2.0 | 0.00 | 0.01 | 0.01 | 77 | 1017.7 |
| 20260905155425 | 88 | 293 | 3.0 | 3.0 | 0.00 | 0.01 | 0.01 | 78 | 1017.4 |
| 20260905154923 | 87 | 155 | 0.0 | 0.0 | 0.00 | 0.01 | 0.01 | 81 | 1017.7 |
| 20260905154419 | 86 | 137 | 1.0 | 1.0 | 0.00 | 0.01 | 0.01 | 81 | 1017.7 |
| 20260905153914 | 85 | 181 | 1.0 | 2.0 | 0.00 | 0.01 | 0.01 | 84 | 1017.7 |
| 20260905153411 | 86 | 167 | 0.0 | 0.0 | 0.00 | 0.01 | 0.01 | 83 | 1017.6 |
| 20260905152910 | 86 | 153 | 1.0 | 2.0 | 0.00 | 0.01 | 0.01 | 82 | 1017.8 |
| 20260905152409 | 87 | 163 | 1.0 | 1.0 | 0.00 | 0.01 | 0.01 | 81 | 1017.8 |
| 20260905151904 | 87 | 170 | 1.0 | 1.0 | 0.00 | 0.01 | 0.01 | 82 | 1018.1 |
| 20260905151400 | 87 | 163 | 2.0 | 2.0 | 0.00 | 0.01 | 0.01 | 80 | 1017.9 |
| 20260905150855 | 88 | 352 | 3.0 | 5.0 | 0.00 | 0.01 | 0.01 | 78 | 1017.8 |
| 20260905150355 | 87 | 198 | 1.0 | 1.0 | 0.00 | 0.01 | 0.01 | 83 | 1017.9 |
| 20260905145852 | 86 | 150 | 0.0 | 1.0 | 0.00 | 0.01 | 0.01 | 85 | 1017.7 |
| 20260905145346 | 85 | 168 | 0.0 | 0.0 | 0.00 | 0.01 | 0.01 | 86 | 1018.0 |
| 20260905144845 | 85 | 181 | 1.0 | 1.0 | 0.00 | 0.01 | 0.01 | 88 | 1017.8 |
| 20260905144341 | 85 | 157 | 3.0 | 3.0 | 0.00 | 0.01 | 0.01 | 88 | 1017.7 |
| 20260905143839 | 85 | 164 | 0.0 | 0.0 | 0.00 | 0.01 | 0.01 | 88 | 1017.8 |
| 20260905143334 | 85 | 170 | 0.0 | 0.0 | 0.00 | 0.01 | 0.01 | 89 | 1017.5 |
| 20260905142834 | 83 | 156 | 0.0 | 0.0 | 0.00 | 0.01 | 0.01 | 92 | 1017.9 |
| 20260905142332 | 82 | 160 | 1.0 | 1.0 | 0.00 | 0.01 | 0.01 | 93 | 1017.6 |
| 20260905141829 | 82 | 166 | 0.0 | 0.0 | 0.00 | 0.01 | 0.01 | 93 | 1017.7 |
| 20260905141324 | 82 | 168 | 0.0 | 0.0 | 0.00 | 0.01 | 0.01 | 94 | 1018.0 |
| 20260905140820 | 82 | 172 | 0.0 | 0.0 | 0.00 | 0.01 | 0.01 | 94 | 1018.0 |
| 20260905140320 | 82 | 163 | 0.0 | 0.0 | 0.00 | 0.01 | 0.01 | 94 | 1017.7 |
| 20260905135818 | 81 | 169 | 0.0 | 0.0 | 0.00 | 0.01 | 0.01 | 95 | 1017.9 |
| 20260905135314 | 80 | 170 | 1.0 | 1.0 | 0.00 | 0.01 | 0.01 | 99 | 1018.2 |
| 20260905134810 | 80 | 162 | 1.0 | 1.0 | 0.00 | 0.01 | 0.01 | 99 | 1018.2 |
| 20260905134308 | 79 | 128 | 1.0 | 1.0 | 0.00 | 0.01 | 0.01 | 99 | 1018.4 |
| 20260905133803 | 79 | 170 | 0.0 | 0.0 | 0.00 | 0.01 | 0.01 | 99 | 1018.2 |
| 20260905133259 | 79 | 169 | 0.0 | 1.0 | 0.00 | 0.01 | 0.01 | 99 | 1018.4 |
| 20260905132757 | 78 | 164 | 0.0 | 0.0 | 0.00 | 0.01 | 0.01 | 99 | 1018.2 |
| 20260905132253 | 78 | 170 | 0.0 | 0.0 | 0.00 | 0.01 | 0.01 | 99 | 1018.2 |
| 20260905131748 | 78 | 115 | 0.0 | 0.0 | 0.00 | 0.01 | 0.01 | 99 | 1018.2 |
| 20260905131243 | 78 | 161 | 0.0 | 0.0 | 0.00 | 0.01 | 0.01 | 99 | 1018.1 |
| 20260905130738 | 78 | 157 | 0.0 | 0.0 | 0.00 | 0.01 | 0.01 | 99 | 1018.1 |
| 20260905130237 | 78 | 161 | 0.0 | 0.0 | 0.00 | 0.01 | 0.01 | 99 | 1018.0 |
| 20260905125732 | 77 | 183 | 0.0 | 0.0 | 0.00 | 0.01 | 0.01 | 99 | 1017.9 |
| 20260905125227 | 77 | 176 | 0.0 | 0.0 | 0.00 | 0.01 | 0.01 | 99 | 1017.9 |